EW9776 Weather Reports


Display with metric or nautical units.
time (UTC)temp
F
wind
direction
speed
MPH
gust
MPH
rain 1hr
in
rain 24hr
in
rain mn
in
humidity
%
barometer
mb
20260906053033 54 189 5.0 8.0 0.00 0.06 0.04 89 1018.5
20260906044535 55 172 4.0 10.0 0.00 0.06 0.04 88 1018.6
20260906043109 55 175 5.0 10.0 0.00 0.06 0.04 89 1018.6
20260906041532 56 185 5.0 10.0 0.00 0.06 0.04 90 1018.5
20260906040033 56 192 6.0 10.0 0.00 0.06 0.04 90 1018.5
20260906031544 55 186 4.0 6.0 0.00 0.06 0.04 88 1018.0
20260906031534 56 190 4.0 5.0 0.00 0.06 0.04 85 1018.0
20260906024537 57 189 4.0 7.0 0.00 0.06 0.04 83 1018.1
20260906023034 59 192 4.0 6.0 0.00 0.06 0.04 80 1018.0
20260906021640 61 202 4.0 7.0 0.00 0.06 0.04 77 1018.1
20260906020029 62 201 4.0 8.0 0.00 0.06 0.04 76 1018.1
20260906014529 64 207 3.0 5.0 0.00 0.06 0.04 73 1018.0
20260906013035 65 197 3.0 6.0 0.00 0.06 0.04 71 1018.1
20260906011532 66 199 3.0 5.0 0.00 0.06 0.04 69 1018.2
20260906010034 66 197 3.0 5.0 0.01 0.06 0.04 70 1018.3
20260906004537 65 200 2.0 4.0 0.01 0.06 0.04 72 1018.4
20260906003037 63 155 2.0 5.0 0.01 0.06 0.04 76 1018.5
20260906001535 62 157 2.0 6.0 0.01 0.06 0.03 81 1018.6
20260906000036 59 186 4.0 11.0 0.00 0.05 0.03 83 1018.7
20260905234535 59 203 6.0 13.0 0.02 0.05 0.03 83 1018.7
20260905233035 59 208 5.0 10.0 0.02 0.05 0.03 84 1018.5
20260905230032 62 212 5.0 12.0 0.02 0.05 0.01 71 1018.5
20260905224535 63 267 2.0 4.0 0.00 0.03 0.01 67 1018.4
20260905223034 64 306 1.0 4.0 0.00 0.03 0.01 66 1018.3
20260905221537 65 345 2.0 5.0 0.00 0.03 0.01 63 1018.2
20260905213038 65 229 0.0 4.0 0.00 0.03 0.01 65 1018.7
20260905203032 63 246 2.0 4.0 0.00 0.03 0.01 68 1018.9
20260905201611 62 218 2.0 4.0 0.00 0.03 0.01 69 1018.9
20260905200034 63 284 2.0 6.0 0.00 0.03 0.01 68 1019.0
20260905194536 62 327 2.0 6.0 0.00 0.03 0.01 71 1019.2
20260905193109 61 342 2.0 5.0 0.00 0.03 0.01 72 1019.2
20260905190153 61 327 3.0 7.0 0.00 0.03 0.01 73 1019.5
20260905184534 60 338 3.0 7.0 0.00 0.03 0.01 74 1019.8
20260905183036 60 334 3.0 7.0 0.00 0.03 0.01 77 1019.8
20260905181536 60 15 2.0 5.0 0.00 0.03 0.01 78 1020.0
20260905180033 58 351 1.0 4.0 0.00 0.03 0.01 83 1020.0
20260905174609 57 3 2.0 3.0 0.00 0.03 0.01 86 1020.0
20260905173045 56 45 1.0 3.0 0.00 0.03 0.01 88 1020.0
20260905173036 55 44 1.0 4.0 0.00 0.03 0.01 90 1019.9
20260905170034 54 30 1.0 4.0 0.00 0.03 0.01 92 1019.9
20260905163110 53 22 1.0 2.0 0.00 0.03 0.01 94 1019.8
20260905161534 53 22 1.0 3.0 0.01 0.03 0.01 95 1019.8
20260905160034 53 29 1.0 3.0 0.01 0.03 0.01 97 1019.8
20260905154532 52 45 2.0 3.0 0.01 0.03 0.01 97 1019.8
20260905153036 51 83 1.0 3.0 0.01 0.03 0.00 98 1019.8
20260905151643 51 90 0.0 1.0 0.00 0.02 0.00 98 1019.8
20260905150036 51 90 0.0 3.0 0.00 0.02 0.00 98 1019.6
20260905144535 50 178 0.0 1.0 0.00 0.02 0.00 98 1019.5
20260905143035 50 109 0.0 2.0 0.00 0.02 0.00 98 1019.5
20260905141537 50 140 1.0 3.0 0.00 0.02 0.00 98 1019.4
20260905140034 49 206 0.0 2.0 0.00 0.02 0.00 98 1019.3
20260905134536 49 134 0.0 4.0 0.00 0.02 0.00 98 1019.1
20260905133034 49 202 0.0 2.0 0.00 0.02 0.00 98 1019.0
20260905131535 49 189 0.0 2.0 0.00 0.02 0.00 98 1018.9
20260905130110 50 144 0.0 3.0 0.00 0.02 0.00 98 1018.8
20260905124534 49 173 0.0 3.0 0.00 0.02 0.00 98 1018.9
20260905123035 49 180 0.0 1.0 0.00 0.02 0.00 98 1018.9
20260905121533 49 180 0.0 2.0 0.00 0.04 0.00 98 1019.0
20260905120034 49 180 1.0 3.0 0.00 0.04 0.00 97 1018.9
20260905114643 50 180 0.0 2.0 0.00 0.04 0.00 97 1018.8
20260905111537 50 175 2.0 3.0 0.00 0.04 0.00 97 1018.7
20260905110031 50 142 1.0 2.0 0.00 0.04 0.00 97 1018.7
20260905104611 50 137 0.0 3.0 0.00 0.04 0.00 97 1018.7
20260905103036 50 180 1.0 4.0 0.00 0.04 0.00 97 1018.6
20260905101532 51 165 1.0 4.0 0.00 0.04 0.00 97 1018.7
20260905100036 51 200 0.0 4.0 0.00 0.04 0.00 97 1018.7
20260905094534 51 202 1.0 3.0 0.00 0.04 0.00 96 1018.8
20260905093034 51 147 0.0 3.0 0.00 0.04 0.00 96 1018.8
20260905091535 51 135 1.0 2.0 0.00 0.04 0.00 96 1018.7
20260905084536 51 82 2.0 4.0 0.00 0.04 0.00 96 1018.7
20260905083035 51 163 0.0 3.0 0.00 0.04 0.00 96 1018.6
20260905080034 51 145 1.0 3.0 0.00 0.04 0.00 96 1018.3
20260905074536 51 123 2.0 4.0 0.00 0.04 0.00 95 1018.1
20260905071534 52 192 0.0 3.0 0.00 0.04 0.00 94 1018.1
20260905070032 52 188 0.0 2.0 0.00 0.04 0.00 93 1017.9
20260905064534 53 151 0.0 2.0 0.02 0.04 0.04 92 1017.7
20260905063035 53 128 1.0 5.0 0.02 0.04 0.04 91 1017.6
20260905061532 53 173 4.0 8.0 0.02 0.04 0.04 88 1017.7
20260905054536 53 176 2.0 5.0 0.00 0.02 0.02 88 1017.8